Crosby, ND

8:00 AM CDT on August 23, 2017 (GMT -0500)
Crosby

Weather History for KD50 - May, 2013

Change the Weather History Date:

Tuesday, May 7, 2013

  Actual Average (KISN) Record (KISN)
Temperature  
Mean Temperature 60 °F -  
Max Temperature 77 °F 62 °F 91 °F (1992)
Min Temperature 42 °F 38 °F 19 °F (1980)
Degree Days  
Heating Degree Days 6    
Growing Degree Days 10 (Base 50)    
Moisture  
Dew Point 31 °F    
Average Humidity 39    
Maximum Humidity 72    
Minimum Humidity 15    
Precipitation  
Precipitation 0.00 in - - ()
Sea Level Pressure  
Sea Level Pressure 29.89 in    
Wind  
Wind Speed 9 mph (SSW)    
Max Wind Speed 14 mph    
Max Gust Speed 23 mph    
Visibility 10 miles    
Events      
Averages and records for this station are not official NWS values.
T = Trace of Precipitation, MM = Missing Value Source: NWS Daily Summary

Daily Weather History Graph

Daily Weather History Graph

Search for Another Location

Airport or City:

Trip Planner

Search our weather history database for the weather conditions in past years. The results will help you decide how hot, cold, wet, or windy it might be!

Date:

Astronomy

May. 07, 2013 Rise Set
Actual Time 6:22 AM CDT 9:18 PM CDT
Civil Twilight 5:45 AM CDT 9:54 PM CDT
Nautical Twilight 4:58 AM CDT 10:42 PM CDT
Astronomical Twilight 4:01 AM CDT 11:40 PM CDT
Moon 5:09 AM CDT (5/7) 7:11 PM CDT (5/7)
Length of Visible Light 16h 09m
Length of Day
14h 55m
Waning Crescent, 5% of the Moon is Illuminated
May 7
Waning Crescent
May 9
New
May 17
First Quarter
May 24
Full
May 31
Last Quarter

Hourly Weather History & Observations

Time (CDT) Temp. Windchill Dew Point Humidity Pressure Visibility Wind Dir Wind Speed Gust Speed Precip Events Conditions
12:15 AM 48.2 °F - 35.6 °F 62% 29.95 in 10.0 mi SSW 9.2 mph - N/A   Clear
12:35 AM 46.4 °F 41.5 °F 35.6 °F 66% 29.95 in 10.0 mi SSW 10.4 mph - N/A   Clear
12:55 AM 46.4 °F 41.9 °F 35.6 °F 66% 29.95 in 10.0 mi SSW 9.2 mph - N/A   Clear
1:15 AM 46.4 °F 41.9 °F 35.6 °F 66% 29.95 in 10.0 mi South 9.2 mph - N/A   Clear
1:35 AM 46.4 °F 41.9 °F 35.6 °F 66% 29.95 in 10.0 mi SSW 9.2 mph - N/A   Clear
1:55 AM 46.4 °F 41.9 °F 33.8 °F 62% 29.95 in 10.0 mi SSW 9.2 mph - N/A   Clear
2:15 AM 46.4 °F 41.9 °F 33.8 °F 62% 29.94 in 10.0 mi SSW 9.2 mph - N/A   Clear
2:35 AM 44.6 °F 39.2 °F 32.0 °F 61% 29.94 in 10.0 mi SSW 10.4 mph - N/A   Clear
2:55 AM 46.4 °F 41.5 °F 32.0 °F 57% 29.94 in 10.0 mi SSW 10.4 mph - N/A   Clear
3:15 AM 46.4 °F 41.5 °F 32.0 °F 57% 29.94 in 10.0 mi SSW 10.4 mph - N/A   Clear
3:35 AM 46.4 °F 41.5 °F 32.0 °F 57% 29.93 in 10.0 mi SSW 10.4 mph - N/A   Clear
3:55 AM 46.4 °F 41.5 °F 32.0 °F 57% 29.93 in 10.0 mi SSW 10.4 mph - N/A   Clear
4:15 AM 46.4 °F 41.5 °F 32.0 °F 57% 29.93 in 10.0 mi SSW 10.4 mph - N/A   Clear
4:35 AM 46.4 °F 41.5 °F 32.0 °F 57% 29.92 in 10.0 mi SSW 10.4 mph - N/A   Clear
5:15 AM 44.6 °F 39.2 °F 32.0 °F 61% 29.92 in 10.0 mi South 10.4 mph - N/A   Clear
5:35 AM 42.8 °F 36.6 °F 32.0 °F 66% 29.92 in 10.0 mi South 11.5 mph - N/A   Clear
5:55 AM 44.6 °F 38.8 °F 32.0 °F 61% 29.92 in 10.0 mi SSW 11.5 mph - N/A   Clear
6:15 AM 42.8 °F 36.6 °F 32.0 °F 66% 29.91 in 10.0 mi SSW 11.5 mph - N/A   Clear
6:35 AM 42.8 °F 36.6 °F 32.0 °F 66% 29.91 in 10.0 mi SSW 11.5 mph - N/A   Clear
6:55 AM 42.8 °F 36.6 °F 32.0 °F 66% 29.91 in 10.0 mi SSW 11.5 mph - N/A   Clear
7:15 AM 44.6 °F 39.2 °F 32.0 °F 61% 29.91 in 10.0 mi SSW 10.4 mph - N/A   Clear
7:35 AM 46.4 °F 41.5 °F 32.0 °F 57% 29.91 in 10.0 mi SSW 10.4 mph - N/A   Clear
7:55 AM 48.2 °F - 32.0 °F 54% 29.91 in 10.0 mi SSW 11.5 mph - N/A   Clear
8:15 AM 50.0 °F - 33.8 °F 54% 29.91 in 10.0 mi SSW 12.7 mph - N/A   Clear
8:35 AM 53.6 °F - 33.8 °F 47% 29.91 in 10.0 mi SSW 13.8 mph - N/A   Clear
8:55 AM 55.4 °F - 33.8 °F 44% 29.90 in 10.0 mi SSW 11.5 mph - N/A   Clear
9:15 AM 59.0 °F - 33.8 °F 39% 29.90 in 10.0 mi SSW 10.4 mph - N/A   Clear
9:35 AM 62.6 °F - 32.0 °F 32% 29.90 in 10.0 mi SSW 10.4 mph - N/A   Clear
9:55 AM 64.4 °F - 30.2 °F 28% 29.90 in 10.0 mi SSW 12.7 mph - N/A   Clear
10:15 AM 66.2 °F - 28.4 °F 24% 29.89 in 10.0 mi SSW 11.5 mph - N/A   Clear
10:35 AM 68.0 °F - 30.2 °F 24% 29.89 in 10.0 mi SSW 9.2 mph - N/A   Clear
10:55 AM 69.8 °F - 28.4 °F 21% 29.89 in 10.0 mi SSW 11.5 mph - N/A   Clear
11:15 AM 71.6 °F - 28.4 °F 20% 29.88 in 10.0 mi SSW 11.5 mph 16.1 mph N/A   Clear
11:35 AM 71.6 °F - 28.4 °F 20% 29.88 in 10.0 mi South 10.4 mph - N/A   Clear
11:55 AM 71.6 °F - 28.4 °F 20% 29.88 in 10.0 mi SW 10.4 mph - N/A   Clear
12:15 PM 71.6 °F - 26.6 °F 19% 29.88 in 10.0 mi SSW 8.1 mph - N/A   Clear
12:35 PM 71.6 °F - 26.6 °F 19% 29.87 in 10.0 mi SSE 3.5 mph - N/A   Clear
12:55 PM 73.4 °F - 26.6 °F 18% 29.87 in 10.0 mi South 9.2 mph - N/A   Clear
1:15 PM 73.4 °F - 26.6 °F 18% 29.87 in 10.0 mi SSW 8.1 mph - N/A   Clear
1:35 PM 73.4 °F - 26.6 °F 18% 29.87 in 10.0 mi WSW 4.6 mph - N/A   Clear
1:55 PM 73.4 °F - 26.6 °F 18% 29.86 in 10.0 mi West 4.6 mph - N/A   Clear
2:15 PM 73.4 °F - 24.8 °F 16% 29.86 in 10.0 mi SSE 3.5 mph - N/A   Clear
2:35 PM 73.4 °F - 24.8 °F 16% 29.85 in 10.0 mi Calm Calm - N/A   Clear
2:55 PM 75.2 °F - 26.6 °F 17% 29.85 in 10.0 mi SSW 5.8 mph - N/A   Clear
3:15 PM 73.4 °F - 24.8 °F 16% 29.85 in 10.0 mi South 8.1 mph - N/A   Clear
3:35 PM 75.2 °F - 24.8 °F 15% 29.84 in 10.0 mi SSW 3.5 mph - N/A   Clear
3:55 PM 75.2 °F - 24.8 °F 15% 29.84 in 10.0 mi North 8.1 mph - N/A   Clear
4:15 PM 75.2 °F - 26.6 °F 17% 29.84 in 10.0 mi West 6.9 mph - N/A   Clear
4:35 PM 75.2 °F - 26.6 °F 17% 29.84 in 10.0 mi West 8.1 mph - N/A   Clear
4:55 PM 75.2 °F - 26.6 °F 17% 29.84 in 10.0 mi West 8.1 mph - N/A   Clear
5:15 PM 75.2 °F - 24.8 °F 15% 29.83 in 10.0 mi Calm Calm - N/A   Clear
5:35 PM 75.2 °F - 26.6 °F 17% 29.83 in 10.0 mi NNW 5.8 mph - N/A   Clear
5:55 PM 75.2 °F - 24.8 °F 15% 29.83 in 10.0 mi Calm Calm - N/A   Clear
6:15 PM 77.0 °F - 26.6 °F 16% 29.83 in 10.0 mi East 5.8 mph - N/A   Clear
6:55 PM 75.2 °F - 26.6 °F 17% 29.83 in 10.0 mi SE 5.8 mph - N/A   Clear
7:15 PM 75.2 °F - 26.6 °F 17% 29.83 in 10.0 mi SSE 4.6 mph - N/A   Clear
7:35 PM 75.2 °F - 26.6 °F 17% 29.83 in 10.0 mi ESE 4.6 mph - N/A   Clear
7:55 PM 75.2 °F - 28.4 °F 18% 29.83 in 10.0 mi SE 4.6 mph - N/A   Clear
8:15 PM 73.4 °F - 32.0 °F 22% 29.83 in 10.0 mi ESE 5.8 mph - N/A   Clear
8:35 PM 68.0 °F - 35.6 °F 30% 29.84 in 10.0 mi ESE 5.8 mph - N/A   Clear
8:55 PM 66.2 °F - 37.4 °F 35% 29.84 in 10.0 mi ESE 6.9 mph - N/A   Clear
9:15 PM 62.6 °F - 39.2 °F 42% 29.85 in 10.0 mi ESE 8.1 mph - N/A   Clear
9:35 PM 59.0 °F - 39.2 °F 48% 29.86 in 10.0 mi ESE 6.9 mph - N/A   Clear
9:55 PM 57.2 °F - 39.2 °F 51% 29.86 in 9.0 mi SE 6.9 mph - N/A   Clear
10:15 PM 57.2 °F - 35.6 °F 44% 29.87 in 10.0 mi SSE 6.9 mph - N/A   Clear
10:35 PM 53.6 °F - 37.4 °F 54% 29.88 in 10.0 mi South 5.8 mph - N/A   Clear
10:55 PM 55.4 °F - 39.2 °F 54% 29.90 in 10.0 mi North 8.1 mph 23.0 mph N/A   Clear
11:15 PM 55.4 °F - 44.6 °F 67% 29.90 in 10.0 mi North 10.4 mph - N/A   Clear
11:35 PM 55.4 °F - 44.6 °F 67% 29.91 in 10.0 mi North 11.5 mph - N/A   Clear
11:55 PM 53.6 °F - 44.6 °F 72% 29.93 in 10.0 mi NW 10.4 mph - N/A   Clear